Weather History for Gainesville, FL

Change the Weather History Date:

Friday, July 19, 2013

  Actual Average Record
Temperature  
Mean Temperature 80 °F 81 °F  
Max Temperature 88 °F 91 °F 101 °F (1899)
Min Temperature 72 °F 72 °F 63 °F (2011)
Degree Days  
Heating Degree Days 0 0  
Month to date heating degree days 0 0  
Since 1 June heating degree days 0 0  
Since 1 July heating degree days 0 0  
Cooling Degree Days 15 16  
Month to date cooling degree days 304 304  
Year to date cooling degree days 1324 1253  
Since 1 June cooling degree days 792 743  
Growing Degree Days 30 (Base 50)    
Moisture  
Dew Point 71 °F    
Average Humidity 73    
Maximum Humidity 93    
Minimum Humidity 53    
Precipitation  
Precipitation 1.75 in 0.20 in 2.82 in (1953)
Month to date precipitation 9.84 3.85  
Year to date precipitation 27.09 26.96  
Snow  
Snow 0.00 in 0.00 in 0.00 in ()
Month to date snowfall 0.0 0.0  
Since 1 June snowfall 0.0 0.0  
Since 1 July snowfall 0.0 0.0  
Snow Depth 0.00 in    
Sea Level Pressure  
Sea Level Pressure 30.10 in    
Wind  
Wind Speed 7 mph (SSE)    
Max Wind Speed 24 mph    
Max Gust Speed 32 mph    
Visibility 7 miles    
Events Fog , Rain , Thunderstorm    
T = Trace of Precipitation, MM = Missing Value Source: NWS Daily Summary

Daily Weather History Graph

Daily Weather History Graph

Search for Another Location

Airport:

Trip Planner

Search our weather history database for the weather conditions in past years. The results will help you decide how hot, cold, wet, or windy it might be!

Date:

Astronomy

Jul. 19, 2013 Rise Set
Actual Time 6:41 AM EDT 8:29 PM EDT
Civil Twilight 6:14 AM EDT 8:55 PM EDT
Nautical Twilight 5:42 AM EDT 9:27 PM EDT
Astronomical Twilight 5:08 AM EDT 10:01 PM EDT
Moon 5:30 PM EDT (7/19) 3:19 AM EDT (7/19)
Length of Visible Light 14h 41m
Length of Day
13h 48m
Waxing Gibbous, 86% of the Moon is Illuminated
Jul 19
Waxing Gibbous
Jul 22
Full
Jul 29
Last Quarter
Aug 6
New
Aug 14
First Quarter

Hourly Weather History & Observations

Time (EDT) Temp. Heat Index Dew Point Humidity Pressure Visibility Wind Dir Wind Speed Gust Speed Precip Events Conditions
12:53 AM 75.0 °F - 72.0 °F 90% 30.11 in 10.0 mi SSE 3.5 mph - N/A   Clear
1:53 AM 73.9 °F - 71.1 °F 91% 30.10 in 10.0 mi South 3.5 mph - N/A   Clear
2:53 AM 75.0 °F - 71.1 °F 87% 30.09 in 10.0 mi SSE 4.6 mph - N/A   Clear
3:53 AM 73.9 °F - 71.1 °F 91% 30.08 in 10.0 mi Calm Calm - 0.00 in Rain Light Rain
4:53 AM 73.9 °F - 71.1 °F 91% 30.08 in 10.0 mi Calm Calm - 0.00 in   Clear
5:53 AM 73.9 °F - 71.1 °F 91% 30.07 in 10.0 mi South 5.8 mph - N/A   Clear
6:53 AM 73.0 °F - 70.0 °F 90% 30.08 in 10.0 mi Calm Calm - N/A   Clear
7:53 AM 75.0 °F - 71.1 °F 87% 30.10 in 10.0 mi Calm Calm - N/A   Clear
8:53 AM 78.1 °F - 71.1 °F 79% 30.12 in 10.0 mi SSE 8.1 mph - N/A   Partly Cloudy
9:53 AM 81.0 °F 85.2 °F 72.0 °F 74% 30.14 in 10.0 mi South 8.1 mph - N/A   Partly Cloudy
10:28 AM 80.6 °F 85.4 °F 73.4 °F 79% 30.14 in 10.0 mi South 5.8 mph - N/A   Mostly Cloudy
10:53 AM 81.0 °F 85.2 °F 72.0 °F 74% 30.13 in 10.0 mi SSW 10.4 mph - N/A   Mostly Cloudy
11:53 AM 84.0 °F 89.6 °F 72.0 °F 67% 30.12 in 10.0 mi South 9.2 mph - N/A   Mostly Cloudy
12:20 PM 84.2 °F 89.6 °F 71.6 °F 66% 30.12 in 10.0 mi SSE 8.1 mph - N/A   Scattered Clouds
12:53 PM 86.0 °F 90.7 °F 70.0 °F 59% 30.10 in 10.0 mi SSW 12.7 mph - N/A   Mostly Cloudy
1:53 PM 88.0 °F 92.9 °F 70.0 °F 55% 30.09 in 10.0 mi South 13.8 mph 19.6 mph N/A   Mostly Cloudy
2:53 PM 87.1 °F 90.6 °F 68.0 °F 53% 30.08 in 10.0 mi SW 15.0 mph 20.7 mph N/A   Overcast
3:53 PM 86.0 °F 90.1 °F 69.1 °F 57% 30.05 in 10.0 mi Variable 3.5 mph - N/A   Scattered Clouds
4:40 PM 80.6 °F 84.6 °F 71.6 °F 74% 30.06 in 10.0 mi SE 13.8 mph - N/A   Mostly Cloudy
4:53 PM 81.0 °F 85.8 °F 73.0 °F 77% 30.05 in 10.0 mi SE 10.4 mph - N/A   Mostly Cloudy
5:30 PM 80.6 °F 84.6 °F 71.6 °F 74% 30.07 in 10.0 mi SE 11.5 mph - N/A Thunderstorm Thunderstorm
5:37 PM 78.8 °F - 71.6 °F 78% 30.09 in 0.8 mi South 20.7 mph 29.9 mph 0.00 in Rain , Thunderstorm Thunderstorms and Rain
5:43 PM 73.4 °F - 71.6 °F 94% 30.09 in 0.2 mi South 15.0 mph 32.2 mph 0.38 in Fog , Rain , Thunderstorm Heavy Thunderstorms and Rain
5:46 PM 73.4 °F - 71.6 °F 94% 30.09 in 0.2 mi South 24.2 mph 32.2 mph 0.59 in Fog , Rain , Thunderstorm Heavy Thunderstorms and Rain
5:53 PM 73.9 °F - 72.0 °F 93% 30.08 in 0.2 mi SSE 20.7 mph 32.2 mph 0.95 in Fog , Rain , Thunderstorm Heavy Thunderstorms and Rain
5:56 PM 73.4 °F - 71.6 °F 94% 30.09 in 0.5 mi SSE 20.7 mph 32.2 mph 0.07 in Fog , Rain , Thunderstorm Heavy Thunderstorms and Rain
6:04 PM 73.4 °F - 71.6 °F 94% 30.11 in 1.2 mi South 13.8 mph 27.6 mph 0.15 in Rain , Thunderstorm Heavy Thunderstorms and Rain
6:18 PM 73.4 °F - 71.6 °F 94% 30.11 in 1.0 mi SW 5.8 mph - 0.29 in Rain , Thunderstorm Heavy Thunderstorms and Rain
6:29 PM 71.6 °F - 69.8 °F 94% 30.11 in 0.8 mi SSE 4.6 mph - 0.40 in Rain , Thunderstorm Heavy Thunderstorms and Rain
6:42 PM 71.6 °F - 69.8 °F 94% 30.11 in 1.5 mi SSE 5.8 mph - 0.54 in Rain , Thunderstorm Heavy Thunderstorms and Rain
6:44 PM 71.6 °F - 69.8 °F 94% 30.10 in 1.8 mi SSE 4.6 mph - 0.54 in Rain , Thunderstorm Thunderstorms and Rain
6:51 PM 71.6 °F - 69.8 °F 94% 30.10 in 2.5 mi SE 4.6 mph - 0.56 in Rain , Thunderstorm Thunderstorms and Rain
6:53 PM 72.0 °F - 70.0 °F 93% 30.09 in 2.5 mi ESE 5.8 mph - 0.57 in Rain , Thunderstorm Heavy Thunderstorms and Rain
7:02 PM 71.6 °F - 69.8 °F 94% 30.09 in 3.0 mi ESE 6.9 mph - 0.03 in Rain Rain
7:13 PM 71.6 °F - 69.8 °F 94% 30.09 in 2.5 mi ESE 5.8 mph - 0.08 in Rain Heavy Rain
7:34 PM 73.4 °F - 71.6 °F 94% 30.09 in 3.0 mi SE 3.5 mph - 0.16 in Rain Rain
7:53 PM 73.0 °F - 70.0 °F 90% 30.08 in 4.0 mi SE 4.6 mph - 0.22 in Rain Rain
8:53 PM 73.0 °F - 71.1 °F 93% 30.08 in 10.0 mi Calm Calm - 0.01 in   Clear
9:53 PM 73.9 °F - 71.1 °F 91% 30.10 in 9.0 mi SE 6.9 mph - N/A   Partly Cloudy
10:01 PM 73.4 °F - 71.6 °F 94% 30.11 in 10.0 mi SSE 6.9 mph - N/A   Mostly Cloudy
10:10 PM 73.4 °F - 71.6 °F 94% 30.11 in 10.0 mi SSE 9.2 mph - N/A   Mostly Cloudy
10:53 PM 73.0 °F - 71.1 °F 93% 30.11 in 10.0 mi SSE 4.6 mph - N/A   Mostly Cloudy
11:53 PM 73.0 °F - 70.0 °F 90% 30.10 in 10.0 mi South 4.6 mph - N/A   Clear